QPF
0.01 0.01 0.02 0.02 0.02 0.01 0.01 0.01 0.01 0.02 0.03 0.02 0.03 0.03 0.02 0.01 0.01 0.02 0.04 0.06 0.05 0.03 0.03 0.03 0.03 0.04 0.04 0.06 0.06 0.04 0.04 0.04 0.03 0.02 0.02 0.01 0.01 0.01 0.01 0.01 0.01 0.01 0.01 0.01
0.02 0.02 0.03 0.02 0.02 0.02 0.03 0.02 0.01 0.02 0.02 0.02 0.03 0.03 0.03 0.02 0.02 0.02 0.03 0.06 0.06 0.05 0.04 0.04 0.04 0.04 0.04 0.03 0.04 0.03 0.03 0.03 0.03 0.04 0.03 0.03 0.02 0.01 0.02 0.01 0.01 0.02 0.01 0.02
0.03 0.04 0.02 0.03 0.02 0.01 0.02 0.01 0.01 0.02 0.02 0.02 0.03 0.03 0.03 0.03 0.03 0.02 0.02 0.05 0.05 0.06 0.07 0.08 0.09 0.08 0.07 0.06 0.05 0.05 0.04 0.03 0.03 0.03 0.03 0.03 0.03 0.03 0.02 0.01 0.02 0.01 0.02 0.02
0.05 0.03 0.02 0.01 0.01 0.01 0.02 0.01 0.01 0.01 0.01 0.01 0.02 0.03 0.03 0.04 0.05 0.04 0.05 0.04 0.05 0.05 0.07 0.13 0.15 0.15 0.13 0.12 0.12 0.13 0.08 0.05 0.04 0.04 0.04 0.04 0.05 0.04 0.03 0.03 0.02 0.02 0.02 0.03
0.03 0.03 0.02 0.01 0.01 0.01 0.02 0.02 0.01 0.01 0.02 0.02 0.03 0.05 0.04 0.04 0.04 0.06 0.07 0.07 0.04 0.04 0.06 0.14 0.17 0.14 0.15 0.16 0.17 0.20 0.17 0.10 0.07 0.06 0.06 0.07 0.08 0.07 0.05 0.04 0.04 0.04 0.05 0.06
0.04 0.04 0.04 0.02 0.01 0.02 0.03 0.04 0.03 0.02 0.03 0.03 0.03 0.03 0.03 0.03 0.03 0.04 0.05 0.07 0.07 0.04 0.04 0.07 0.12 0.13 0.11 0.13 0.15 0.15 0.17 0.15 0.09 0.06 0.07 0.07 0.08 0.10 0.09 0.07 0.06 0.05 0.05 0.05
0.06 0.06 0.04 0.02 0.01 0.02 0.04 0.05 0.03 0.03 0.06 0.06 0.03 0.02 0.02 0.04 0.05 0.04 0.03 0.03 0.05 0.06 0.05 0.04 0.04 0.08 0.10 0.10 0.13 0.13 0.12 0.11 0.11 0.08 0.08 0.08 0.08 0.10 0.12 0.10 0.07 0.06 0.05 0.04
0.06 0.07 0.05 0.03 0.03 0.04 0.04 0.04 0.04 0.05 0.09 0.09 0.06 0.04 0.04 0.04 0.04 0.04 0.04 0.03 0.04 0.07 0.08 0.06 0.04 0.04 0.08 0.10 0.12 0.11 0.08 0.06 0.06 0.08 0.11 0.12 0.10 0.08 0.08 0.08 0.08 0.07 0.06 0.04
0.05 0.07 0.06 0.05 0.07 0.07 0.07 0.07 0.06 0.06 0.11 0.12 0.10 0.07 0.07 0.09 0.07 0.04 0.04 0.03 0.05 0.06 0.08 0.08 0.07 0.06 0.05 0.08 0.07 0.07 0.06 0.04 0.04 0.05 0.07 0.09 0.09 0.06 0.05 0.05 0.05 0.05 0.05 0.04
0.06 0.07 0.06 0.05 0.05 0.05 0.05 0.05 0.05 0.05 0.08 0.09 0.09 0.07 0.07 0.10 0.11 0.10 0.11 0.06 0.05 0.05 0.04 0.06 0.05 0.05 0.04 0.05 0.04 0.04 0.04 0.04 0.04 0.04 0.04 0.03 0.03 0.04 0.03 0.03 0.03 0.03 0.03 0.03
0.05 0.05 0.05 0.04 0.03 0.04 0.04 0.03 0.03 0.03 0.03 0.05 0.06 0.05 0.05 0.06 0.10 0.12 0.21 0.17 0.10 0.04 0.03 0.04 0.05 0.03 0.03 0.04 0.04 0.03 0.02 0.03 0.03 0.03 0.03 0.03 0.02 0.02 0.02 0.02 0.02 0.03 0.02 0.02
0.06 0.04 0.04 0.04 0.04 0.05 0.04 0.03 0.03 0.03 0.03 0.03 0.04 0.06 0.06 0.05 0.05 0.07 0.13 0.14 0.10 0.07 0.04 0.02 0.02 0.03 0.02 0.02 0.03 0.03 0.02 0.02 0.02 0.02 0.02 0.02 0.01 0.01 0.03 0.03 0.03 0.03 0.03 0.03
0.04 0.04 0.03 0.02 0.02 0.03 0.04 0.04 0.04 0.04 0.04 0.04 0.04 0.03 0.04 0.06 0.04 0.04 0.06 0.06 0.06 0.05 0.04 0.02 0.02 0.02 0.01 0.01 0.02 0.03 0.03 0.03 0.03 0.02 0.02 0.02 0.02 0.02 0.03 0.03 0.03 0.03 0.03 0.03
0.04 0.04 0.03 0.02 0.02 0.03 0.04 0.05 0.05 0.04 0.06 0.05 0.03 0.03 0.03 0.04 0.05 0.05 0.05 0.04 0.03 0.03 0.02 0.02 0.02 0.02 0.02 0.02 0.01 0.02 0.04 0.04 0.04 0.03 0.02 0.01 0.02 0.02 0.04 0.04 0.05 0.04 0.03 0.03
0.03 0.03 0.03 0.02 0.01 0.02 0.02 0.04 0.05 0.05 0.07 0.10 0.04 0.03 0.03 0.03 0.04 0.04 0.04 0.04 0.03 0.03 0.02 0.01 0.01 0.01 0.02 0.02 0.02 0.02 0.02 0.02 0.04 0.04 0.03 0.02 0.02 0.02 0.03 0.04 0.05 0.04 0.03 0.03
0.03 0.02 0.01 0.01 0.01 0.01 0.01 0.05 0.08 0.07 0.07 0.09 0.05 0.03 0.03 0.03 0.03 0.03 0.04 0.03 0.03 0.02 0.02 0.02 0.01 0.01 0.01 0.02 0.02 0.02 0.02 0.02 0.03 0.03 0.03 0.03 0.04 0.04 0.04 0.04 0.04 0.04 0.04 0.04
0.03 0.02 0.01 0.01 0.01 0.01 0.02 0.05 0.09 0.07 0.06 0.06 0.05 0.04 0.03 0.03 0.02 0.03 0.05 0.03 0.02 0.03 0.02 0.01 0.01 0.02 0.01 0.02 0.03 0.03 0.03 0.03 0.04 0.03 0.03 0.04 0.05 0.05 0.06 0.07 0.06 0.06 0.05 0.05
0.04 0.04 0.03 0.02 0.02 0.03 0.03 0.03 0.04 0.05 0.06 0.05 0.04 0.03 0.03 0.03 0.02 0.03 0.04 0.02 0.01 0.02 0.03 0.02 0.01 0.02 0.02 0.02 0.03 0.04 0.04 0.04 0.03 0.03 0.03 0.03 0.04 0.05 0.06 0.07 0.08 0.09 0.08 0.06
0.02 0.02 0.03 0.03 0.07 0.09 0.06 0.03 0.03 0.03 0.04 0.05 0.05 0.04 0.03 0.03 0.03 0.03 0.02 0.02 0.01 0.02 0.03 0.03 0.02 0.02 0.03 0.03 0.03 0.04 0.04 0.04 0.04 0.04 0.03 0.03 0.02 0.03 0.05 0.05 0.07 0.10 0.10 0.08
0.03 0.03 0.04 0.06 0.08 0.07 0.05 0.04 0.04 0.04 0.04 0.05 0.04 0.03 0.03 0.04 0.05 0.05 0.04 0.03 0.03 0.03 0.03 0.03 0.02 0.02 0.02 0.04 0.05 0.05 0.05 0.05 0.05 0.04 0.03 0.03 0.02 0.02 0.02 0.04 0.05 0.08 0.08 0.08
0.04 0.04 0.04 0.04 0.05 0.05 0.05 0.05 0.05 0.04 0.04 0.04 0.04 0.03 0.03 0.05 0.06 0.05 0.05 0.05 0.04 0.04 0.03 0.02 0.02 0.03 0.03 0.04 0.04 0.03 0.03 0.03 0.03 0.03 0.03 0.03 0.02 0.02 0.03 0.03 0.03 0.05 0.06 0.06
0.06 0.05 0.04 0.03 0.03 0.04 0.04 0.04 0.05 0.04 0.02 0.03 0.05 0.03 0.03 0.04 0.04 0.04 0.04 0.06 0.07 0.05 0.03 0.03 0.03 0.02 0.02 0.03 0.03 0.03 0.02 0.02 0.02 0.02 0.03 0.03 0.03 0.03 0.03 0.03 0.03 0.03 0.03 0.03
0.04 0.04 0.04 0.03 0.03 0.03 0.02 0.02 0.02 0.03 0.02 0.02 0.03 0.03 0.04 0.04 0.04 0.04 0.03 0.04 0.07 0.08 0.07 0.06 0.05 0.03 0.02 0.02 0.02 0.03 0.02 0.02 0.02 0.02 0.02 0.02 0.02 0.02 0.02 0.02 0.02 0.01 0.01 0.02
0.03 0.02 0.02 0.02 0.02 0.02 0.01 0.02 0.02 0.02 0.02 0.02 0.02 0.03 0.03 0.03 0.03 0.03 0.03 0.03 0.05 0.07 0.08 0.08 0.07 0.04 0.02 0.02 0.03 0.03 0.02 0.02 0.03 0.03 0.02 0.02 0.02 0.01 0.01 0.01 0.01 0.01 0.01 0.01
0.03 0.02 0.02 0.02 0.01 0.01 0.01 0.01 0.01 0.02 0.02 0.02 0.02 0.02 0.02 0.02 0.02 0.02 0.02 0.03 0.03 0.04 0.05 0.06 0.06 0.04 0.03 0.02 0.02 0.02 0.02 0.02 0.02 0.03 0.04 0.03 0.03 0.02 0.02 0.02 0.02 0.01 0.01 0.01
0.05 0.05 0.05 0.03 0.02 0.02 0.01 0.01 0.01 0.01 0.02 0.02 0.03 0.03 0.02 0.01 0.01 0.01 0.01 0.01 0.01 0.01 0.02 0.03 0.03 0.03 0.03 0.03 0.02 0.02 0.02 0.02 0.02 0.03 0.03 0.04 0.04 0.04 0.03 0.03 0.03 0.02 0.02 0.01
0.04 0.04 0.05 0.05 0.05 0.04 0.02 0.02 0.02 0.02 0.02 0.02 0.03 0.03 0.02 0.01 0.02 0.01 0.01 0.01 0.01 0.01 0.01 0.01 0.01 0.01 0.02 0.02 0.02 0.02 0.01 0.01 0.02 0.02 0.03 0.03 0.03 0.03 0.03 0.02 0.02 0.02 0.02 0.02
MSLP
1010.25 1010.66 1011.18 1011.74 1012.24 1012.58 1012.69 1012.51 1012.04 1011.32 1010.41 1009.42 1008.45 1007.59 1006.89 1006.38 1006.03 1005.79 1005.60 1005.39 1005.10 1004.73 1004.27 1003.78 1003.31 1002.94 1002.74 1002.75 1002.97 1003.40 1003.98 1004.66 1005.37 1006.06 1006.70 1007.28 1007.80 1008.29 1008.78 1009.30 1009.86 1010.47 1011.09 1011.71
1011.60 1012.19 1012.86 1013.53 1014.11 1014.49 1014.60 1014.39 1013.89 1013.11 1012.14 1011.07 1010.02 1009.07 1008.27 1007.65 1007.19 1006.85 1006.56 1006.26 1005.89 1005.44 1004.91 1004.34 1003.79 1003.33 1003.00 1002.87 1002.94 1003.19 1003.61 1004.13 1004.71 1005.30 1005.88 1006.43 1006.97 1007.50 1008.06 1008.65 1009.28 1009.95 1010.64 1011.30
1013.24 1013.98 1014.78 1015.55 1016.19 1016.61 1016.74 1016.53 1015.98 1015.16 1014.12 1012.97 1011.81 1010.74 1009.80 1009.04 1008.44 1007.97 1007.55 1007.15 1006.70 1006.19 1005.61 1004.99 1004.38 1003.83 1003.40 1003.12 1003.03 1003.10 1003.33 1003.67 1004.09 1004.56 1005.05 1005.57 1006.10 1006.68 1007.29 1007.96 1008.68 1009.43 1010.19 1010.91
1015.15 1015.98 1016.85 1017.67 1018.35 1018.78 1018.91 1018.69 1018.13 1017.27 1016.18 1014.95 1013.70 1012.50 1011.43 1010.52 1009.77 1009.15 1008.61 1008.11 1007.58 1007.01 1006.39 1005.73 1005.07 1004.46 1003.92 1003.52 1003.26 1003.16 1003.19 1003.35 1003.60 1003.93 1004.34 1004.80 1005.34 1005.94 1006.62 1007.36 1008.17 1009.00 1009.82 1010.61
1017.24 1018.08 1018.94 1019.73 1020.38 1020.79 1020.90 1020.67 1020.10 1019.23 1018.11 1016.85 1015.53 1014.25 1013.07 1012.04 1011.15 1010.41 1009.75 1009.15 1008.56 1007.94 1007.28 1006.59 1005.89 1005.22 1004.60 1004.08 1003.68 1003.41 1003.27 1003.25 1003.36 1003.56 1003.88 1004.30 1004.82 1005.45 1006.18 1006.99 1007.86 1008.76 1009.65 1010.48
1019.40 1020.15 1020.90 1021.60 1022.15 1022.49 1022.55 1022.30 1021.73 1020.87 1019.78 1018.52 1017.20 1015.88 1014.65 1013.54 1012.57 1011.72 1010.98 1010.30 1009.65 1008.99 1008.30 1007.58 1006.85 1006.13 1005.45 1004.84 1004.32 1003.91 1003.63 1003.48 1003.45 1003.56 1003.80 1004.18 1004.69 1005.34 1006.09 1006.95 1007.87 1008.81 1009.73 1010.58
1021.47 1022.05 1022.63 1023.14 1023.55 1023.77 1023.75 1023.48 1022.92 1022.10 1021.07 1019.88 1018.61 1017.33 1016.10 1014.98 1013.97 1013.08 1012.28 1011.56 1010.86 1010.17 1009.46 1008.72 1007.97 1007.21 1006.48 1005.81 1005.20 1004.70 1004.32 1004.07 1003.96 1003.99 1004.18 1004.53 1005.03 1005.67 1006.44 1007.31 1008.23 1009.18 1010.09 1010.94
1023.30 1023.66 1024.01 1024.31 1024.52 1024.60 1024.50 1024.19 1023.66 1022.91 1021.97 1020.89 1019.72 1018.54 1017.39 1016.31 1015.32 1014.43 1013.63 1012.89 1012.17 1011.46 1010.74 1010.00 1009.23 1008.46 1007.70 1006.99 1006.34 1005.79 1005.35 1005.04 1004.88 1004.87 1005.03 1005.35 1005.83 1006.46 1007.21 1008.05 1008.94 1009.85 1010.73 1011.53
1024.76 1024.89 1024.99 1025.05 1025.07 1025.00 1024.82 1024.49 1023.99 1023.33 1022.51 1021.58 1020.56 1019.52 1018.49 1017.51 1016.59 1015.75 1014.98 1014.25 1013.54 1012.84 1012.12 1011.38 1010.62 1009.85 1009.09 1008.36 1007.71 1007.13 1006.68 1006.35 1006.16 1006.14 1006.27 1006.57 1007.02 1007.61 1008.31 1009.09 1009.92 1010.75 1011.55 1012.27
1025.76 1025.66 1025.54 1025.40 1025.24 1025.05 1024.80 1024.46 1024.02 1023.45 1022.77 1021.99 1021.15 1020.27 1019.40 1018.55 1017.74 1016.98 1016.26 1015.58 1014.90 1014.22 1013.53 1012.80 1012.06 1011.31 1010.56 1009.86 1009.21 1008.65 1008.20 1007.87 1007.69 1007.66 1007.78 1008.05 1008.45 1008.98 1009.61 1010.30 1011.03 1011.75 1012.44 1013.07
1026.25 1025.97 1025.68 1025.39 1025.11 1024.84 1024.55 1024.22 1023.83 1023.37 1022.83 1022.21 1021.54 1020.83 1020.11 1019.40 1018.71 1018.05 1017.42 1016.80 1016.17 1015.53 1014.87 1014.18 1013.47 1012.75 1012.04 1011.36 1010.75 1010.21 1009.78 1009.48 1009.30 1009.27 1009.37 1009.61 1009.96 1010.42 1010.95 1011.53 1012.14 1012.75 1013.32 1013.84
1026.23 1025.85 1025.45 1025.08 1024.74 1024.44 1024.15 1023.86 1023.54 1023.18 1022.76 1022.28 1021.76 1021.20 1020.62 1020.04 1019.47 1018.91 1018.37 1017.82 1017.26 1016.67 1016.06 1015.42 1014.75 1014.07 1013.41 1012.77 1012.19 1011.69 1011.29 1011.01 1010.85 1010.81 1010.90 1011.09 1011.39 1011.76 1012.19 1012.67 1013.16 1013.64 1014.10 1014.52
1025.81 1025.38 1024.96 1024.57 1024.23 1023.95 1023.70 1023.47 1023.22 1022.94 1022.63 1022.26 1021.85 1021.41 1020.94 1020.47 1020.00 1019.53 1019.06 1018.59 1018.09 1017.57 1017.02 1016.43 1015.81 1015.18 1014.56 1013.97 1013.43 1012.97 1012.61 1012.35 1012.20 1012.16 1012.23 1012.39 1012.62 1012.92 1013.27 1013.64 1014.02 1014.40 1014.76 1015.10
1025.09 1024.68 1024.29 1023.95 1023.67 1023.44 1023.26 1023.09 1022.91 1022.71 1022.47 1022.18 1021.84 1021.48 1021.09 1020.69 1020.29 1019.89 1019.49 1019.08 1018.65 1018.19 1017.69 1017.16 1016.60 1016.02 1015.45 1014.91 1014.41 1013.99 1013.66 1013.43 1013.29 1013.26 1013.31 1013.45 1013.64 1013.88 1014.16 1014.45 1014.75 1015.05 1015.34 1015.62
1024.24 1023.88 1023.57 1023.31 1023.12 1022.98 1022.87 1022.78 1022.66 1022.51 1022.32 1022.07 1021.78 1021.45 1021.11 1020.75 1020.39 1020.04 1019.68 1019.32 1018.94 1018.53 1018.09 1017.61 1017.10 1016.58 1016.06 1015.57 1015.12 1014.74 1014.44 1014.24 1014.13 1014.11 1014.17 1014.29 1014.47 1014.68 1014.91 1015.15 1015.39 1015.64 1015.88 1016.12
1023.39 1023.12 1022.90 1022.75 1022.66 1022.61 1022.59 1022.56 1022.49 1022.38 1022.21 1021.98 1021.70 1021.38 1021.05 1020.70 1020.36 1020.03 1019.70 1019.37 1019.02 1018.66 1018.26 1017.83 1017.38 1016.91 1016.44 1015.99 1015.59 1015.26 1015.00 1014.84 1014.76 1014.77 1014.85 1014.98 1015.16 1015.36 1015.58 1015.80 1016.01 1016.23 1016.44 1016.66
1022.68 1022.49 1022.38 1022.34 1022.35 1022.39 1022.44 1022.46 1022.44 1022.35 1022.18 1021.95 1021.66 1021.33 1020.99 1020.63 1020.28 1019.95 1019.63 1019.32 1018.99 1018.66 1018.29 1017.91 1017.49 1017.07 1016.65 1016.25 1015.91 1015.62 1015.42 1015.30 1015.27 1015.32 1015.43 1015.60 1015.80 1016.02 1016.24 1016.45 1016.66 1016.87 1017.06 1017.26
1022.18 1022.09 1022.08 1022.13 1022.23 1022.35 1022.45 1022.52 1022.51 1022.43 1022.27 1022.02 1021.71 1021.36 1020.99 1020.62 1020.25 1019.91 1019.58 1019.26 1018.95 1018.63 1018.29 1017.93 1017.56 1017.17 1016.80 1016.45 1016.16 1015.93 1015.78 1015.71 1015.73 1015.83 1015.99 1016.20 1016.43 1016.68 1016.92 1017.14 1017.35 1017.54 1017.73 1017.90
1021.95 1021.94 1022.01 1022.14 1022.31 1022.48 1022.63 1022.72 1022.73 1022.64 1022.47 1022.21 1021.88 1021.51 1021.11 1020.71 1020.32 1019.96 1019.61 1019.29 1018.97 1018.66 1018.33 1017.99 1017.65 1017.30 1016.97 1016.68 1016.43 1016.25 1016.16 1016.15 1016.22 1016.36 1016.57 1016.82 1017.08 1017.35 1017.61 1017.84 1018.05 1018.23 1018.39 1018.53
1021.95 1022.03 1022.17 1022.36 1022.57 1022.77 1022.94 1023.04 1023.05 1022.96 1022.78 1022.51 1022.16 1021.77 1021.35 1020.93 1020.52 1020.13 1019.77 1019.43 1019.10 1018.78 1018.46 1018.14 1017.82 1017.51 1017.22 1016.97 1016.77 1016.65 1016.60 1016.63 1016.75 1016.93 1017.17 1017.44 1017.73 1018.01 1018.27 1018.50 1018.69 1018.85 1018.99 1019.09
1022.13 1022.27 1022.47 1022.70 1022.94 1023.16 1023.33 1023.43 1023.43 1023.34 1023.15 1022.87 1022.51 1022.11 1021.68 1021.24 1020.81 1020.41 1020.03 1019.67 1019.33 1019.01 1018.70 1018.39 1018.09 1017.81 1017.56 1017.35 1017.19 1017.11 1017.10 1017.17 1017.31 1017.51 1017.76 1018.04 1018.32 1018.59 1018.84 1019.05 1019.23 1019.36 1019.45 1019.52
1022.39 1022.59 1022.83 1023.08 1023.33 1023.55 1023.72 1023.80 1023.80 1023.70 1023.50 1023.22 1022.86 1022.45 1022.02 1021.58 1021.14 1020.72 1020.33 1019.96 1019.62 1019.30 1018.99 1018.70 1018.42 1018.17 1017.96 1017.78 1017.67 1017.62 1017.63 1017.72 1017.86 1018.07 1018.31 1018.56 1018.83 1019.07 1019.29 1019.47 1019.61 1019.70 1019.76 1019.79
1022.64 1022.89 1023.15 1023.41 1023.66 1023.87 1024.02 1024.09 1024.08 1023.97 1023.77 1023.49 1023.14 1022.74 1022.31 1021.87 1021.43 1021.01 1020.62 1020.25 1019.91 1019.59 1019.29 1019.02 1018.77 1018.56 1018.37 1018.24 1018.15 1018.12 1018.15 1018.24 1018.38 1018.56 1018.77 1019.00 1019.21 1019.41 1019.59 1019.72 1019.82 1019.88 1019.91 1019.91
1022.80 1023.07 1023.34 1023.61 1023.84 1024.03 1024.17 1024.22 1024.20 1024.09 1023.89 1023.62 1023.28 1022.89 1022.48 1022.05 1021.63 1021.22 1020.83 1020.47 1020.14 1019.83 1019.56 1019.31 1019.10 1018.91 1018.76 1018.66 1018.60 1018.59 1018.63 1018.71 1018.83 1018.98 1019.15 1019.32 1019.49 1019.63 1019.76 1019.85 1019.90 1019.93 1019.93 1019.91
1022.81 1023.10 1023.37 1023.62 1023.84 1024.01 1024.12 1024.16 1024.13 1024.02 1023.83 1023.58 1023.26 1022.90 1022.51 1022.11 1021.71 1021.32 1020.95 1020.60 1020.29 1020.01 1019.76 1019.54 1019.36 1019.21 1019.10 1019.03 1018.99 1019.00 1019.03 1019.10 1019.20 1019.31 1019.43 1019.55 1019.66 1019.76 1019.83 1019.88 1019.90 1019.91 1019.89 1019.86
1022.66 1022.94 1023.20 1023.44 1023.63 1023.78 1023.88 1023.91 1023.88 1023.78 1023.61 1023.38 1023.09 1022.76 1022.41 1022.04 1021.67 1021.31 1020.97 1020.65 1020.37 1020.12 1019.90 1019.72 1019.57 1019.45 1019.37 1019.33 1019.31 1019.33 1019.36 1019.42 1019.49 1019.57 1019.65 1019.72 1019.78 1019.82 1019.86 1019.87 1019.87 1019.85 1019.83 1019.80
1022.35 1022.62 1022.87 1023.08 1023.26 1023.40 1023.48 1023.52 1023.49 1023.40 1023.26 1023.06 1022.82 1022.53 1022.22 1021.90 1021.57 1021.25 1020.95 1020.66 1020.41 1020.19 1020.00 1019.85 1019.74 1019.65 1019.60 1019.57 1019.57 1019.59 1019.62 1019.67 1019.71 1019.76 1019.80 1019.83 1019.85 1019.87 1019.86 1019.85 1019.83 1019.81 1019.78 1019.74
Thickness
5694 5704 5708 5707 5708 5710 5703 5697 5688 5694 5699 5706 5713 5716 5717 5719 5719 5719 5717 5717 5717 5716 5716 5715 5714 5713 5711 5710 5709 5709 5707 5705 5703 5703 5702 5701 5700 5699 5698 5697 5697 5696 5694 5693
5685 5699 5700 5699 5703 5705 5704 5703 5697 5697 5696 5709 5713 5714 5713 5712 5712 5710 5710 5710 5711 5712 5710 5709 5708 5707 5705 5704 5704 5703 5702 5701 5700 5698 5696 5695 5695 5694 5693 5692 5691 5690 5689 5688
5665 5684 5686 5677 5693 5697 5697 5700 5696 5688 5694 5703 5702 5704 5705 5704 5704 5703 5704 5705 5703 5704 5703 5704 5704 5703 5700 5699 5698 5696 5695 5696 5695 5693 5691 5690 5690 5688 5687 5686 5685 5684 5683 5682
5655 5665 5654 5673 5698 5701 5695 5694 5696 5695 5697 5699 5700 5701 5702 5701 5699 5699 5699 5699 5699 5698 5698 5698 5699 5698 5696 5694 5691 5689 5688 5688 5688 5687 5685 5684 5682 5681 5680 5680 5678 5678 5677 5676
5643 5646 5654 5675 5687 5689 5684 5680 5688 5688 5692 5695 5697 5695 5691 5695 5696 5695 5695 5694 5693 5693 5692 5692 5691 5690 5688 5684 5683 5682 5679 5680 5680 5680 5679 5677 5675 5674 5674 5673 5672 5671 5671 5670
5640 5641 5641 5660 5682 5692 5683 5667 5682 5685 5684 5686 5687 5675 5677 5688 5689 5689 5689 5688 5687 5686 5685 5683 5683 5681 5678 5675 5674 5673 5673 5673 5673 5673 5672 5671 5669 5668 5667 5666 5665 5665 5664 5663
5633 5633 5641 5664 5678 5683 5659 5659 5676 5679 5680 5680 5677 5676 5679 5682 5682 5682 5682 5681 5680 5678 5676 5675 5675 5673 5669 5667 5667 5667 5667 5666 5666 5666 5665 5665 5663 5662 5661 5659 5658 5657 5656 5655
5624 5623 5632 5660 5665 5659 5658 5668 5672 5673 5675 5674 5673 5674 5674 5674 5672 5672 5672 5672 5670 5667 5666 5666 5666 5664 5661 5659 5661 5662 5660 5659 5658 5658 5658 5658 5655 5654 5653 5652 5650 5649 5648 5647
5626 5629 5643 5653 5656 5661 5663 5663 5666 5666 5667 5667 5665 5664 5664 5663 5662 5663 5663 5662 5661 5658 5656 5656 5656 5655 5653 5653 5654 5654 5652 5650 5649 5649 5649 5648 5647 5645 5644 5643 5642 5641 5640 5639
5626 5633 5641 5647 5652 5657 5660 5660 5661 5660 5658 5658 5656 5655 5655 5654 5652 5652 5652 5651 5650 5649 5646 5646 5647 5647 5647 5647 5647 5646 5644 5642 5641 5641 5640 5640 5640 5640 5638 5636 5635 5634 5633 5632
5619 5627 5635 5640 5644 5648 5652 5653 5653 5652 5651 5649 5647 5645 5646 5644 5643 5643 5643 5642 5641 5639 5638 5637 5638 5639 5640 5640 5639 5637 5636 5635 5634 5633 5632 5631 5631 5631 5631 5630 5629 5628 5627 5626
5612 5622 5623 5627 5637 5642 5642 5642 5642 5642 5640 5639 5638 5636 5636 5635 5635 5634 5634 5632 5631 5631 5630 5630 5630 5631 5632 5632 5632 5630 5628 5627 5626 5625 5624 5623 5622 5621 5623 5623 5623 5623 5623 5622
5618 5624 5624 5628 5633 5635 5634 5634 5634 5633 5632 5629 5629 5630 5629 5627 5626 5625 5625 5624 5623 5622 5622 5622 5622 5622 5623 5624 5624 5623 5621 5620 5619 5619 5618 5616 5614 5613 5613 5614 5615 5615 5616 5615
5619 5620 5619 5622 5623 5627 5627 5626 5626 5625 5624 5624 5622 5622 5621 5619 5618 5617 5616 5616 5616 5615 5615 5615 5615 5615 5616 5617 5616 5615 5614 5614 5613 5612 5611 5610 5609 5607 5607 5606 5605 5606 5608 5608
5614 5615 5614 5616 5618 5618 5619 5617 5616 5614 5614 5614 5614 5613 5612 5611 5609 5609 5609 5609 5609 5607 5607 5607 5607 5608 5610 5610 5609 5608 5607 5607 5606 5606 5605 5604 5603 5602 5601 5601 5600 5600 5600 5600
5607 5609 5609 5610 5609 5609 5609 5608 5605 5605 5605 5604 5603 5604 5604 5603 5602 5602 5601 5602 5600 5598 5599 5599 5599 5600 5602 5602 5601 5601 5600 5601 5601 5600 5599 5598 5597 5596 5595 5594 5593 5593 5593 5593
5599 5598 5600 5600 5601 5601 5601 5600 5599 5599 5598 5597 5596 5597 5596 5595 5594 5593 5593 5594 5593 5593 5592 5592 5592 5594 5595 5595 5594 5594 5594 5594 5595 5593 5592 5591 5590 5590 5589 5588 5588 5587 5587 5588
5598 5598 5597 5597 5596 5595 5595 5595 5593 5592 5591 5592 5591 5589 5588 5586 5585 5586 5586 5586 5586 5585 5585 5586 5587 5588 5588 5589 5589 5588 5588 5587 5587 5585 5585 5584 5584 5584 5584 5583 5583 5582 5581 5580
5594 5594 5594 5593 5592 5590 5588 5587 5586 5585 5585 5584 5583 5581 5580 5579 5578 5578 5579 5577 5577 5576 5577 5580 5580 5581 5581 5582 5583 5582 5582 5581 5580 5579 5578 5578 5578 5578 5578 5577 5577 5576 5575 5573
5589 5590 5589 5588 5588 5585 5582 5581 5580 5578 5577 5577 5576 5574 5573 5572 5571 5571 5571 5570 5570 5570 5572 5574 5575 5575 5575 5576 5577 5576 5575 5575 5574 5573 5572 5572 5572 5572 5571 5571 5570 5569 5568 5566
5583 5583 5583 5582 5581 5580 5578 5576 5573 5570 5570 5570 5569 5567 5566 5566 5566 5565 5564 5563 5565 5566 5567 5568 5568 5568 5568 5569 5570 5570 5569 5569 5568 5567 5566 5565 5565 5565 5564 5564 5563 5562 5560 5558
5576 5576 5576 5576 5574 5573 5571 5570 5568 5567 5565 5564 5563 5562 5561 5560 5560 5559 5560 5559 5560 5561 5561 5561 5561 5562 5563 5563 5563 5563 5563 5562 5562 5561 5560 5559 5558 5557 5557 5556 5555 5554 5552 5550
5569 5570 5569 5569 5568 5567 5566 5564 5564 5562 5561 5560 5559 5557 5556 5555 5555 5554 5553 5555 5556 5556 5556 5556 5556 5557 5557 5557 5557 5557 5556 5556 5555 5555 5554 5553 5552 5551 5550 5549 5547 5545 5543 5542
5564 5564 5564 5563 5562 5560 5558 5558 5558 5557 5557 5556 5555 5554 5553 5551 5550 5551 5551 5552 5552 5552 5551 5551 5551 5551 5551 5550 5550 5549 5549 5549 5548 5548 5547 5546 5546 5544 5543 5541 5540 5538 5537 5536
5558 5558 5558 5556 5554 5552 5552 5553 5552 5551 5551 5550 5550 5550 5549 5548 5546 5547 5547 5547 5547 5547 5546 5546 5545 5545 5544 5543 5543 5542 5542 5542 5541 5542 5541 5540 5539 5538 5536 5535 5533 5531 5529 5527
5553 5552 5551 5550 5549 5548 5547 5547 5546 5545 5544 5544 5544 5544 5544 5544 5543 5543 5543 5543 5543 5542 5541 5540 5539 5538 5538 5537 5536 5536 5535 5535 5535 5535 5534 5533 5532 5530 5529 5527 5526 5523 5521 5519
5547 5547 5546 5545 5545 5545 5544 5542 5540 5539 5539 5539 5539 5538 5538 5537 5537 5537 5537 5536 5536 5536 5535 5534 5533 5532 5532 5531 5530 5529 5529 5528 5528 5527 5527 5526 5525 5524 5522 5520 5518 5516 5514 5512